Cloud_Cover
100 100 100 100 100 89 35 57 16 84 98 98 30 5 6 6 17 34 5 5 38 5 4 48 28 84 100 100 100 100 100 100 100 11 10 0 0 2 7 2 58 79 99 100 71 19 1 5 46
98 100 100 100 95 14 25 41 91 89 98 85 16 5 57 71 5 7 5 5 5 100 93 100 100 100 100 100 100 100 100 100 47 5 5 0 2 0 0 3 3 2 5 8 0 9 16 44 5
100 95 100 100 70 36 26 45 91 97 84 29 9 6 27 23 64 90 8 5 14 96 100 100 100 100 100 100 100 100 27 62 0 0 0 1 0 0 0 5 0 0 0 0 24 39 14 0 0
100 100 100 100 93 96 98 100 78 5 5 5 4 5 11 5 50 16 97 100 100 100 100 100 100 100 100 23 6 4 4 1 0 0 0 16 1 0 0 0 0 0 0 0 12 2 1 0 0
94 55 99 100 97 100 100 36 18 63 18 70 22 8 7 8 43 100 100 100 100 100 100 100 100 66 12 5 3 0 0 0 0 0 0 2 0 0 0 0 0 0 0 13 0 0 0 0 0
96 89 92 96 88 100 100 93 93 5 5 5 5 10 73 100 100 100 100 100 100 99 100 100 100 100 1 0 0 0 0 0 0 0 0 0 0 0 0 2 4 11 1 0 0 23 21 28 22
100 100 100 100 100 58 5 38 14 5 6 8 94 99 100 100 100 100 100 100 100 100 100 86 87 3 0 0 0 0 0 0 0 0 0 0 0 0 0 0 0 0 0 1 1 4 2 0 0
100 100 100 100 100 100 100 49 5 25 100 7 99 100 100 100 100 100 100 100 100 100 100 13 1 0 0 0 0 0 0 0 0 0 0 0 4 0 0 0 0 0 0 0 0 0 0 0 0
100 100 92 100 100 100 100 100 100 100 100 100 100 100 100 100 100 100 100 100 100 100 97 23 0 0 0 0 0 0 0 0 7 0 0 0 0 0 0 2 0 0 0 0 0 0 0 0 0
100 100 100 100 93 100 70 86 100 97 100 100 100 100 100 100 100 100 100 100 59 4 0 0 0 0 0 0 0 0 0 0 0 0 0 0 0 0 0 0 0 0 0 0 0 0 0 0 0
100 90 92 100 87 61 93 100 100 100 100 100 100 100 100 100 93 96 68 12 19 1 0 0 0 0 0 0 0 0 0 0 0 0 0 0 0 0 0 0 0 0 0 0 0 0 0 0 0
98 99 100 100 100 100 100 100 100 100 100 100 100 100 100 100 77 28 0 0 0 0 0 0 0 0 0 0 0 0 0 0 0 0 0 0 0 0 0 0 0 0 0 0 0 0 0 0 0
100 95 59 92 97 100 100 100 100 100 100 100 100 98 100 95 100 8 0 0 0 0 0 0 0 0 3 0 0 0 0 0 0 0 0 0 0 0 0 0 0 0 0 0 0 0 0 0 0
100 100 100 87 89 100 100 100 100 100 100 100 51 46 79 58 0 0 0 0 0 0 0 0 0 0 0 0 0 0 0 0 0 0 0 0 0 0 0 0 0 0 0 0 0 0 0 0 0
51 6 70 100 98 100 100 100 75 66 84 0 5 0 0 0 0 0 0 0 0 0 0 0 0 0 2 0 3 1 0 0 0 0 0 0 0 0 1 0 0 0 0 0 0 0 0 0 0
0 0 0 0 28 48 6 0 0 1 0 0 0 0 0 0 0 0 0 0 0 0 0 0 0 0 0 0 0 5 5 5 0 0 0 5 4 5 5 5 5 5 5 5 3 0 4 5 4
0 0 0 0 0 0 0 0 0 0 0 0 0 0 0 0 0 0 0 0 0 0 0 0 0 0 1 5 5 5 5 5 5 5 5 5 5 4 5 5 3 0 0 3 0 1 2 0 0
0 0 0 0 0 0 0 0 0 0 0 0 0 0 0 0 0 0 0 0 0 0 0 0 0 3 5 5 5 5 5 5 5 5 5 0 3 2 0 0 0 0 0 4 3 5 5 5 2
0 0 0 0 0 0 0 0 0 0 0 0 0 0 0 0 0 0 0 0 0 0 0 4 5 5 5 5 5 5 5 5 3 5 5 5 5 5 5 4 5 30 52 9 5 5 5 4 0
0 0 0 0 0 0 0 0 0 0 0 0 0 0 0 0 0 0 0 0 0 0 4 5 5 9 26 5 5 5 5 5 5 7 14 5 5 6 8 5 10 5 6 72 78 5 5 5 0
0 0 0 0 0 0 0 0 0 0 0 0 0 0 0 0 0 0 0 0 0 0 5 41 64 32 5 5 5 8 81 92 89 88 83 28 21 62 80 5 5 18 26 5 6 7 60 19 53
0 0 0 0 0 0 0 0 0 0 0 0 0 0 0 0 5 2 0 0 4 5 5 5 5 10 33 5 5 56 95 79 21 6 5 11 75 24 5 17 51 6 5 8 9 15 37 5 79
0 0 0 0 0 0 0 0 0 0 0 0 1 4 0 4 1 1 5 5 5 5 5 5 5 32 70 89 94 29 5 5 6 75 100 100 5 5 6 13 5 5 5 5 5 5 6 32 87
0 0 0 0 0 0 0 0 4 0 0 1 5 0 0 1 4 5 5 6 30 35 66 69 29 76 78 98 16 29 36 79 38 58 7 5 5 28 100 100 89 55 5 12 67 100 75 94 92
0 0 0 2 1 2 0 0 0 0 0 5 4 0 0 5 5 5 6 19 5 13 20 62 71 76 96 40 48 60 89 57 15 6 5 5 72 100 72 62 65 9 78 98 82 77 99 100 100
0 0 0 0 0 0 0 0 2 0 0 1 0 0 3 5 5 5 5 5 24 36 12 12 90 56 8 39 60 18 5 42 69 23 97 100 100 100 15 15 51 97 100 100 69 82 67 96 96
0 0 0 0 2 4 2 1 0 0 0 2 5 5 4 5 1 5 5 5 5 22 22 5 6 29 6 9 5 9 41 96 100 100 100 100 93 75 98 90 100 94 91 100 100 100 100 100 100
0 0 3 2 22 4 0 0 0 1 3 5 5 4 0 0 4 5 5 7 13 5 5 6 5 11 40 16 5 9 6 25 97 100 100 100 58 90 97 100 100 100 100 99 97 95 99 100 83
4 4 0 0 1 1 2 0 0 2 5 8 1 0 1 5 6 39 92 95 43 47 44 28 15 36 32 6 8 46 100 100 100 100 85 94 91 82 91 91 100 100 95 100 100 100 100 100 100
0 0 0 0 4 4 4 4 5 5 5 1 5 4 6 69 100 99 99 85 28 44 13 5 5 5 24 79 100 100 100 100 100 64 97 24 74 80 71 100 100 88 100 100 100 100 100 100 100